Zurück zum Katalog

COSMOS 446

AktivMilitärLEO
NORAD 5549·PAYLOAD·🇷🇺 Russia

Gestartet Oct 13, 1971 von Plesetsk Cosmodrome

Loading…

Nächste Überflüge (nächste 24 Stunden)

TLE

AktuellSource: Space-Track

Epoche: Sep 14, 2026, 04:45 UTC

1 05549U 71086C   26257.19857102 -.00000003  00000-0  84807-4 0  9995
2 05549  74.0326 358.3481 0084035 323.0298  36.4982 12.54462280514934

Verfolge COSMOS 446 in Echtzeit mit AllMySat

Download on the App Store